Regional Weather Roundup
Issued by NWS Grand Forks, ND

Home | Current Version | Previous Version | Graphics & Text | Print | Product List | Glossary On
Versions: 1 2 3 4 5 6 7 8 9 10 11 12 13 14 15 16 17 18 19 20 21 22 23 24 25 26 27 28 29 30 31 32 33 34 35 36 37 38 39 40 41 42 43 44 45 46 47 48 49 50
009
ASUS43 KFGF 271231
RWRFGF
PRAIRIE TO PINES  WEATHER ROUNDUP
NATIONAL WEATHER SERVICE EASTERN NORTH DAKOTA/GRAND FORKS ND
700 AM CDT THU JUL 27 2017

 **SATELLITE DATA USED TO AUGMENT SKY COVER AT AUTOMATED STATIONS**
 *****  WEATHER ACROSS EASTERN NORTH DAKOTA  *****

CITY           SKY/WX    TMP DP  RH WIND       PRES   REMARKS
GRAND FORKS    FAIR      58  57  97 CALM      30.11S
6HR MIN TEMP:  55; 6HR MAX TEMP:  62;

GRAND FRKS AFB FAIR      56  55  98 CALM      30.12S
DEVILS LAKE    FAIR      63  60  90 SW5       30.17R
6HR MIN TEMP:  54; 6HR MAX TEMP:  63;

FARGO          FAIR      58  56  93 NW5       30.12S
WAHPETON ARPT  FAIR      61  57  88 NW5       30.13R
$$

 ***** WEATHER ACROSS CENTRAL AND WESTERN NORTH DAKOTA  *****

CITY           SKY/WX    TMP DP  RH WIND       PRES   REMARKS
BISMARCK       CLOUDY    67  58  72 N10       30.19R
6HR MIN TEMP:  62; 6HR MAX TEMP:  67;

MINOT          FAIR      69  58  67 S13G21    30.11F
6HR MIN TEMP:  66; 6HR MAX TEMP:  70; 6HR PCP:  0.01;

JAMESTOWN      FAIR      56  54  93 CALM      30.15R
6HR MIN TEMP:  54; 6HR MAX TEMP:  61;

MINOT AFB      FAIR      63  57  83 SE6       30.10F
GARRISON         N/A     62  62 100 E7        30.17F
WILLISTON      LGT RAIN  69  58  67 SE16      30.10S
6HR MIN TEMP:  66; 6HR MAX TEMP:  75; 6HR PCP:  0.13;

DICKINSON      FAIR      60  55  83 NE14      30.11R
6HR MIN TEMP:  60; 6HR MAX TEMP:  63;

HETTINGER      FAIR      59  52  77 E7        30.13R
6HR MIN TEMP:  59; 6HR MAX TEMP:  70;

$$

 *****  OTHER AIRPORT OBSERVATIONS IN OUR AREA  *****

CITY           SKY/WX    TMP DP  RH WIND       PRES   REMARKS
WALHALLA       NOT AVBL
GRAFTON AIRPOR FAIR      61  61 100 CALM      30.14R
VALLEY CITY AR FAIR      57  57 100 CALM      30.17R
CANDO          NOT AVBL
CAVALIER APRT  FAIR      64  61  88 CALM      30.12R
GWINNER        SUNNY     61  59  94 CALM      30.14R
SHEYENNE NWR     N/A     58  58 100 CALM      29.95S
ROLLA            N/A     59  59 100 CALM      30.17S
 ***** THE ABOVE OBSERVATIONS ARE NON NWS ARE NOT QUALITY
       CONTROLLED AND MAY MIS-REPORT RAIN FOR SNOW...
$$

  *****  WEATHER ACROSS NORTHERN MINNESOTA  *****

CITY           SKY/WX    TMP DP  RH WIND       PRES   REMARKS
FLAG ISLAND    FAIR      64  63  94 CALM      30.09S
WARROAD        FAIR      59  55  88 CALM      30.12S
ROSEAU         FAIR      59  54  82 CALM      30.11S
HALLOCK        FAIR      57  55  94 CALM      30.12R FOG
THF RVR FALLS  FAIR      57  55  93 CALM      30.13R
6HR MIN TEMP:  56; 6HR MAX TEMP:  65;

BAUDETTE       FAIR      58  58 100 W5        30.10S
6HR MIN TEMP:  54; 6HR MAX TEMP:  62;

WASKISH        FAIR      59  57  94 CALM      30.11S
CROOKSTON      FAIR      57  57 100 CALM        N/A
STEPHEN NDAWN    N/A     57  55  94 CALM        N/A
GREENBUSH NDAW   N/A     57  57 100 SW1         N/A
$$
  *****  WEATHER ACROSS CENTRAL AND WEST MINNESOTA  *****

CITY           SKY/WX    TMP DP  RH WIND       PRES   REMARKS
FOSSTON        FAIR      57  55  94 CALM      30.13S FOG
BEMIDJI        FAIR      59  57  92 CALM      30.12S
PARK RAPIDS    FAIR      62  59  90 N3        30.12S
6HR MIN TEMP:  57; 6HR MAX TEMP:  62;

ELBOW LAKE     FAIR      66  62  86 CALM      30.12R FOG
WADENA         FAIR      61  61 100 N3        30.11S
DETROIT LAKES  FAIR      64  59  82 CALM      30.14S
MOORHEAD       FAIR      57  57 100 CALM      30.13R
FERGUS FALLS   FAIR      63  61  94 CALM      30.12R
MORRIS MN      FAIR      63  61  94 CALM      30.10S
STAPLES        FAIR      59  57  94 N3        30.11S
$$
  *****  WEATHER ELSEWHERE ACROSS MINNESOTA  *****

CITY           SKY/WX    TMP DP  RH WIND       PRES   REMARKS
DULUTH         FAIR      62  60  93 N6        30.09S
6HR MIN TEMP:  58; 6HR MAX TEMP:  63;

INTRNTL FALLS  FAIR      57  55  93 CALM      30.10S FOG
6HR MIN TEMP:  48; 6HR MAX TEMP:  56;

ELY            FAIR      55  55 100 CALM      30.10S
CLOQUET        FAIR      63  57  82 NW3       30.09S
WHEATON        FAIR      63  59  88 CALM      30.13S
BRAINERD       FAIR      59  58  96 CALM      30.10S
6HR MIN TEMP:  55; 6HR MAX TEMP:  63;

HIBBING        FAIR      53  53 100 CALM      30.10R
6HR MIN TEMP:  49; 6HR MAX TEMP:  54;

ALEXANDRIA     FAIR      65  60  84 NE6       30.12S
6HR MIN TEMP:  61; 6HR MAX TEMP:  68;

SAINT CLOUD    FAIR      63  61  93 CALM      30.08S
6HR MIN TEMP:  60; 6HR MAX TEMP:  65;

MINNEAPOLIS    FAIR      68  60  75 N6        30.06R
6HR MIN TEMP:  66; 6HR MAX TEMP:  70;

$$

  *****  WEATHER ACROSS SOUTH DAKOTA  *****

CITY           SKY/WX    TMP DP  RH WIND       PRES   REMARKS
SIOUX FALLS    FAIR      61  60  97 CALM      30.11R
6HR MIN TEMP:  58; 6HR MAX TEMP:  67;

BROOKINGS      FAIR      60  58  92 CALM      30.13R
WATERTOWN      FAIR      58  56  93 CALM      30.13R
6HR MIN TEMP:  56; 6HR MAX TEMP:  63;

HURON          FAIR      58  58 100 W5        30.13R
6HR MIN TEMP:  57; 6HR MAX TEMP:  63;

SISSETON         N/A     58  56  93 NW6       30.12R
ABERDEEN       FAIR      59  58  96 NW5       30.15R
6HR MIN TEMP:  57; 6HR MAX TEMP:  65;

MITCHELL       FAIR      61  61 100 W3        30.13R FOG
PIERRE         FAIR      59  54  83 E3        30.13R
6HR MIN TEMP:  58; 6HR MAX TEMP:  67;

MOBRIDGE       FAIR      64  58  80 E7        30.12R
RAPID CITY     MOCLDY    67  58  72 SE6       30.16S
6HR MIN TEMP:  64; 6HR MAX TEMP:  69;

$$

  *****  SOME WEATHER IN NEARBY STATES *****

CITY           SKY/WX    TMP DP  RH WIND       PRES   REMARKS
GLASGOW MT     FAIR      68  49  50 E20       29.98R
6HR MIN TEMP:  68; 6HR MAX TEMP:  78;

GREAT FALLS MT FAIR      67  43  41 SW9       30.03R
6HR MIN TEMP:  63; 6HR MAX TEMP:  75;

CHEYENNE WY    FAIR      59  56  89 CALM      30.28R
6HR MIN TEMP:  59; 6HR MAX TEMP:  66;

SCOTTSBLUFF NE CLOUDY    67  64  90 E9        30.19S
6HR MIN TEMP:  67; 6HR MAX TEMP:  69; 6HR PCP:  0.19;

OMAHA NE       FAIR      67  64  90 N7        30.05R
6HR MIN TEMP:  67; 6HR MAX TEMP:  72;

DES MOINES IA  FAIR      72  69  90 N8        29.99R
6HR MIN TEMP:  71; 6HR MAX TEMP:  73;

DAVENPORT IA   CLOUDY    71  69  93 NE10      29.98R
6HR MIN TEMP:  70; 6HR MAX TEMP:  72;

CHICAGO IL     PTSUNNY   74  69  85 N8        29.93F HAZE
6HR MIN TEMP:  73; 6HR MAX TEMP:  76; 6HR PCP: TRACE;

EAU CLAIRE WI  FAIR      64  62  93 CALM      30.04R
6HR MIN TEMP:  58; 6HR MAX TEMP:  64;

LA CROSSE WI   FAIR      69  66  90 N6        30.02R
6HR MIN TEMP:  66; 6HR MAX TEMP:  72;

$$

  *****  SOME NATIONAL WEATHER *****

CITY           SKY/WX    TMP DP  RH WIND       PRES   REMARKS
LA GUARDIA NY  PTSUNNY   70  62  76 SW7       30.05S
6HR MIN TEMP:  67; 6HR MAX TEMP:  70;

RALEIGH NC     PTSUNNY   77  69  76 SW8       30.09S
6HR MIN TEMP:  72; 6HR MAX TEMP:  78;

ATLANTA GA     PTSUNNY   74  70  87 CALM      30.10R
6HR MIN TEMP:  72; 6HR MAX TEMP:  74;

NEW ORLEANS LA FAIR      78  76  93 NW5       30.05R
6HR MIN TEMP:  76; 6HR MAX TEMP:  80;

OKLAHOMA CITY  MOCLDY    78  68  71 S8        29.98S
6HR MIN TEMP:  76; 6HR MAX TEMP:  82;

ALBUQUERQUE NM CLOUDY    76  57  51 E21       30.22R
6HR MIN TEMP:  76; 6HR MAX TEMP:  81; 6HR PCP: TRACE;

SALT LAKE CITY FAIR      67  57  70 SE6       30.17R
6HR MIN TEMP:  67; 6HR MAX TEMP:  72;

LOS ANGELES CA FAIR      67  64  90 W5        29.96S
6HR MIN TEMP:  67; 6HR MAX TEMP:  70;

BOISE ID       FAIR



USA.gov is the U.S. government's official web portal to all federal, state and local government web resources and services.